Location: Mahannah Oil Field
(37.4664°N, 96.6003°W)
Time: 01:55:00
(UTC+00:00)

A-11 Canister half - Pass Details

Date: 02 February 2021
Orbit: 1524 x 1684 km, 47.3° (Epoch: 25 February)

Event Time Altitude Azimuth Distance (km) Brightness Sun altitude
Rises 03:51:59 0° 284° (WNW) 4,794 12.3 -47.7°
Reaches altitude 10° 03:59:01 10° 249° (WSW) 3,850 11.4 -49.0°
Maximum altitude 04:00:42 11° 239° (WSW) 3,816 11.3 -49.4°
Drops below altitude 10° 04:02:25 10° 229° (SW) 3,869 11.3 -49.7°
Enters shadow 04:06:04 - 209° (SSW) 4,250 11.3 -50.4°
Sets 04:09:39 0° 194° (SSW) 4,889 - -51.0°
